Indianapolis, IN

3:40 AM EDT on March 30, 2017 (GMT -0400)
Indianapolis International

Weather History for KIND - March, 2013

Change the Weather History Date:

Sunday, March 3, 2013

  Actual Average Record
Temperature  
Mean Temperature 29 °F 37 °F  
Max Temperature 35 °F 46 °F 77 °F (1992)
Min Temperature 22 °F 29 °F -5 °F (1943)
Degree Days  
Heating Degree Days 36 28  
Month to date heating degree days 106 84  
Since 1 July heating degree days 4117 4227  
Cooling Degree Days 0 0  
Month to date cooling degree days 0 0  
Year to date cooling degree days 0 0  
Moisture  
Dew Point 18 °F    
Average Humidity 67    
Maximum Humidity 84    
Minimum Humidity 49    
Precipitation  
Precipitation T in 0.09 in 2.01 in (1953)
Month to date precipitation 0.03 0.28  
Year to date precipitation 7.81 5.26  
Snow  
Snow T in 0.10 in 3.40 in (1912)
Month to date snowfall 0.2 0.4  
Since 1 July snowfall 20.2 23.5  
Snow Depth T in    
Sea Level Pressure  
Sea Level Pressure 30.10 in    
Wind  
Wind Speed 7 mph (NW)    
Max Wind Speed 16 mph    
Max Gust Speed 20 mph    
Visibility 10 miles    
Events Snow    
T = Trace of Precipitation, MM = Missing Value Source: NWS Daily Summary

Daily Weather History Graph

Daily Weather History Graph

Search for Another Location

Airport or City:

Trip Planner

Search our weather history database for the weather conditions in past years. The results will help you decide how hot, cold, wet, or windy it might be!

Date:

Astronomy

Mar. 03, 2013 Rise Set
Actual Time 7:14 AM EST 6:39 PM EST
Civil Twilight 6:47 AM EST 7:06 PM EST
Nautical Twilight 6:16 AM EST 7:37 PM EST
Astronomical Twilight 5:45 AM EST 8:09 PM EST
Moon 12:16 AM EST (3/3) 10:30 AM EST (3/3)
Length of Visible Light 12h 18m
Length of Day
11h 24m
Waning Gibbous, 64% of the Moon is Illuminated
Mar 3
Waning Gibbous
Mar 4
Last Quarter
Mar 11
New
Mar 19
First Quarter
Mar 27
Full

Hourly Weather History & Observations

Time (EST) Temp. Windchill Dew Point Humidity Pressure Visibility Wind Dir Wind Speed Gust Speed Precip Events Conditions
12:14 AM 26.6 °F 15.7 °F 21.2 °F 80% 30.09 in 4.0 mi NW 12.7 mph - 0.00 in Snow Light Snow
12:29 AM 26.6 °F 15.7 °F 21.2 °F 80% 30.09 in 9.0 mi NW 12.7 mph - 0.00 in Snow Light Snow
12:54 AM 26.1 °F 16.8 °F 21.9 °F 84% 30.12 in 7.0 mi NW 9.2 mph - 0.00 in Snow Light Snow
1:54 AM 26.1 °F 16.8 °F 21.0 °F 81% 30.12 in 9.0 mi NW 9.2 mph - 0.00 in Snow Light Snow
2:54 AM 26.1 °F 16.8 °F 19.9 °F 78% 30.11 in 10.0 mi NW 9.2 mph - 0.00 in   Overcast
3:54 AM 25.0 °F 14.2 °F 19.0 °F 78% 30.10 in 10.0 mi NW 11.5 mph - N/A   Overcast
4:54 AM 24.1 °F 17.0 °F 17.1 °F 75% 30.10 in 10.0 mi WNW 5.8 mph - N/A   Overcast
5:54 AM 24.1 °F 16.0 °F 18.0 °F 77% 30.10 in 10.0 mi WNW 6.9 mph - N/A   Overcast
6:54 AM 23.0 °F 13.9 °F 17.1 °F 78% 30.11 in 10.0 mi WNW 8.1 mph - N/A   Overcast
7:54 AM 21.9 °F 12.5 °F 17.1 °F 82% 30.12 in 10.0 mi WNW 8.1 mph - N/A   Mostly Cloudy
8:54 AM 23.0 °F 13.1 °F 17.1 °F 78% 30.14 in 10.0 mi WNW 9.2 mph - N/A   Mostly Cloudy
9:54 AM 26.1 °F 15.6 °F 17.1 °F 69% 30.14 in 10.0 mi NW 11.5 mph - N/A   Mostly Cloudy
10:54 AM 28.0 °F 17.5 °F 17.1 °F 63% 30.13 in 10.0 mi NW 12.7 mph - N/A   Scattered Clouds
11:54 AM 30.0 °F 22.4 °F 18.0 °F 61% 30.11 in 10.0 mi WNW 8.1 mph - N/A   Scattered Clouds
12:54 PM 30.9 °F 22.2 °F 16.0 °F 54% 30.11 in 10.0 mi NW 10.4 mph - N/A   Overcast
1:54 PM 30.9 °F 21.7 °F 16.0 °F 54% 30.09 in 10.0 mi NW 11.5 mph - N/A   Mostly Cloudy
2:54 PM 32.0 °F 26.4 °F 16.0 °F 52% 30.08 in 10.0 mi NNW 5.8 mph - N/A   Mostly Cloudy
3:54 PM 30.9 °F 22.2 °F 16.0 °F 54% 30.08 in 10.0 mi NNW 10.4 mph - N/A   Mostly Cloudy
4:54 PM 33.1 °F 26.9 °F 17.1 °F 52% 30.08 in 10.0 mi NW 6.9 mph - N/A   Mostly Cloudy
5:54 PM 32.0 °F 26.4 °F 17.1 °F 54% 30.08 in 10.0 mi NNW 5.8 mph - N/A   Mostly Cloudy
6:54 PM 28.9 °F 23.9 °F 17.1 °F 61% 30.08 in 10.0 mi NNW 4.6 mph - N/A   Scattered Clouds
7:54 PM 28.9 °F 25.2 °F 16.0 °F 58% 30.09 in 10.0 mi NNW 3.5 mph - N/A   Partly Cloudy
8:54 PM 27.0 °F 23.0 °F 16.0 °F 63% 30.09 in 10.0 mi North 3.5 mph - N/A   Clear
9:54 PM 26.1 °F - 16.0 °F 66% 30.10 in 10.0 mi Calm Calm - N/A   Clear
10:54 PM 24.1 °F - 17.1 °F 75% 30.10 in 10.0 mi Calm Calm - N/A   Clear
11:54 PM 24.1 °F 19.7 °F 18.0 °F 77% 30.11 in 10.0 mi WSW 3.5 mph - N/A   Clear